sat.trackr.live / text

‹ back to catalog

STARLINK-37353

NORAD 69157 · 2026-111K

PAYLOAD ACTIVE UNKNOWN

§ Identity

Operator
Country
US
Launch date
2026-05-21
Launch site
AFETR
Launch vehicle
Mass (kg)
RCS (m²)

Purposes: comms

External: N2YO · Heavens-Above · Gunter

§ Orbital elements

Epoch: 2026-09-20T03:41:14.462304Z

Period
93.85 min
Inclination
53.1575°
Eccentricity
0.0001176
Mean motion
15.34401184 rev/d
Perigee alt
461.9 km
Apogee alt
463.5 km
Semi-major
6,840.8 km
B*
4.1879e-4
RAAN
67.4710°
Arg perigee
78.4514°
Mean anomaly
281.6621°
Rev number
1,884

§ Raw data

STARLINK-373531 69157U 26111K   26263.15363961  .00013800  00000+0  41879-3 0  99952 69157  53.1575  67.4710 0001176  78.4514 281.6621 15.34401184 18843

JSON: /api/v1/satellites/69157 · /tle

For live sub-satellite position, see the globe view (requires WebGL).

§ Visibility from observer

Set your observer location to see the next 7 days of passes ≥ 10°. The values pass through the URL so the page stays shareable.

No JS? Fill the form by hand. The geolocation button needs JavaScript.